Location: Stull Observatory
(42.2506°N, 77.7903°W)
Time: 23:22:19
(UTC-04:00)

ISS - All Passes

Search period start: 28 March 2017 00:00
Search period end: 07 April 2017 00:00
Orbit: 399 x 409 km, 51.6° (Epoch: 29 March)

Date Brightness Start Highest point End Pass type
(mag) Time Alt. Az. Time Alt. Az. Time Alt. Az.
28 Mar - 01:16:11 10° NW 01:18:40 19° NNE 01:21:10 10° ENE night (unlit)
28 Mar - 02:52:20 10° NW 02:55:37 66° NNE 02:58:54 10° ESE night (unlit)
28 Mar - 04:29:44 10° W 04:31:45 15° SW 04:33:46 10° S night (unlit)
28 Mar - 19:33:49 10° SSE 19:35:39 14° SE 19:37:31 10° E daylight
28 Mar - 21:08:31 10° WSW 21:11:45 69° NNW 21:15:02 10° NE visible
28 Mar - 22:46:12 10° WNW 22:48:41 19° NNW 22:51:10 10° NE visible
29 Mar - 00:23:50 10° NW 00:26:03 17° N 00:28:18 10° NE night (unlit)
29 Mar - 02:00:03 10° NW 02:03:11 39° NNE 02:06:19 10° E night (unlit)
29 Mar - 03:36:42 10° WNW 03:39:34 28° SW 03:42:27 10° SSE night (unlit)
29 Mar - 20:16:11 10° SW 20:19:24 64° SE 20:22:39 10° ENE visible
29 Mar - 21:53:20 10° WNW 21:56:06 25° NNW 21:58:53 10° NE visible
29 Mar - 23:31:17 10° NW 23:33:24 16° N 23:35:31 10° NE night (unlit)
30 Mar - 01:07:48 10° NW 01:10:40 27° NNE 01:13:33 10° E night (unlit)
30 Mar - 02:44:05 10° WNW 02:47:19 53° SW 02:50:32 10° SE night (unlit)
30 Mar - 19:24:10 10° SSW 19:27:07 33° SE 19:30:05 10° ENE daylight
30 Mar - 21:00:32 10° W 21:03:34 35° NNW 21:06:37 10° NE visible
30 Mar - 22:38:34 10° NW 22:40:44 16° N 22:42:55 10° NE visible
31 Mar - 00:15:31 10° NW 00:18:06 21° NNE 00:20:40 10° ENE night (unlit)
31 Mar - 01:51:39 10° NW 01:54:58 81° NE 01:58:15 10° ESE night (unlit)
31 Mar - 03:29:33 10° WSW 03:30:59 12° SW 03:32:25 10° SSW night (unlit)
31 Mar - 18:32:38 10° S 18:34:53 18° SE 18:37:10 10° E daylight
31 Mar - 20:07:53 10° WSW 20:11:05 56° NNW 20:14:18 10° NE visible
31 Mar - 21:45:42 10° WNW 21:48:04 18° NNW 21:50:28 10° NE visible
31 Mar - 23:23:09 10° NW 23:25:27 17° N 23:27:44 10° NE visible
01 Apr - 00:59:19 10° NW 01:02:31 46° NNE 01:05:42 10° ESE night (unlit)
01 Apr - 02:36:09 10° W 02:38:49 23° SW 02:41:28 10° S night (unlit)
01 Apr - 19:15:25 10° SW 19:18:39 80° SE 19:21:55 10° ENE daylight
01 Apr - 20:52:46 10° WNW 20:55:26 22° NNW 20:58:06 10° NE visible
01 Apr - 22:30:38 10° NW 22:32:46 16° N 22:34:53 10° NE visible
02 Apr - 00:07:02 10° NW 00:09:59 30° NNE 00:12:57 10° E night (unlit)
02 Apr - 01:43:24 10° WNW 01:46:32 42° SW 01:49:40 10° SSE night (unlit)
02 Apr - 18:23:14 10° SSW 18:26:18 41° SE 18:29:23 10° ENE daylight
02 Apr - 19:59:54 10° W 20:02:50 30° NNW 20:05:47 10° NE visible
02 Apr - 21:37:56 10° NW 21:40:03 16° N 21:42:11 10° NE visible
02 Apr - 23:14:43 10° NW 23:17:23 22° NNE 23:20:03 10° ENE visible
03 Apr - 00:50:53 10° WNW 00:54:10 83° SSW 00:57:28 10° SE night (unlit)
03 Apr - 17:31:28 10° S 17:34:01 22° SE 17:36:35 10° E daylight
03 Apr - 19:07:08 10° WSW 19:10:17 47° NNW 19:13:28 10° NE daylight
03 Apr - 20:45:03 10° NW 20:47:20 17° N 20:49:38 10° NE visible
03 Apr - 22:22:21 10° NW 22:24:43 18° N 22:27:05 10° ENE visible
03 Apr - 23:58:29 10° NW 00:01:43 55° NNE 00:04:57 10° ESE night (unlit)
04 Apr - 01:35:33 10° W 01:37:56 18° SW 01:40:18 10° S night (unlit)
04 Apr - 16:40:38 10° SSE 16:41:48 12° SE 16:42:58 10° ESE daylight
04 Apr - 18:14:34 10° WSW 18:17:48 83° NW 18:21:04 10° NE daylight
04 Apr - 19:52:06 10° WNW 19:54:39 21° NNW 19:57:13 10° NE daylight
04 Apr - 21:29:51 10° NW 21:32:00 16° N 21:34:09 10° NE visible
04 Apr - 23:06:08 10° NW 23:09:10 34° NNE 23:12:13 10° E visible
05 Apr - 00:42:37 10° WNW 00:45:38 34° SW 00:48:39 10° SSE night (unlit)
05 Apr - 17:22:14 10° SW 17:25:24 51° SE 17:28:33 10° ENE daylight
05 Apr - 18:59:09 10° W 19:02:00 27° NNW 19:04:51 10° NE daylight
05 Apr - 20:37:10 10° NW 20:39:15 16° N 20:41:21 10° NE visible
05 Apr - 22:13:48 10° NW 22:16:33 24° NNE 22:19:19 10° ENE visible
05 Apr - 23:50:00 10° WNW 23:53:15 67° SW 23:56:31 10° SE night (unlit)
06 Apr - 16:30:16 10° SSW 16:33:02 26° SE 16:35:50 10° ENE daylight
06 Apr - 18:06:18 10° W 18:09:23 40° NNW 18:12:30 10° NE daylight
06 Apr - 19:44:18 10° NW 19:46:30 17° N 19:48:43 10° NE daylight
06 Apr - 21:21:25 10° NW 21:23:51 19° NNE 21:26:20 10° ENE visible
06 Apr - 22:57:32 10° NW 23:00:47 66° NNE 23:04:03 10° ESE visible
